QPF
0.08 0.14 0.22 0.25 0.20 0.19 0.17 0.15 0.12 0.11 0.12 0.07 0.07 0.09 0.08 0.07 0.08 0.08 0.07 0.09 0.11 0.11 0.11 0.14 0.18 0.23 0.23 0.22 0.16 0.14 0.13 0.13 0.13 0.11 0.10 0.12 0.12 0.08 0.06 0.06 0.06 0.05 0.05
0.07 0.11 0.20 0.20 0.16 0.16 0.16 0.15 0.12 0.10 0.10 0.07 0.07 0.08 0.07 0.06 0.07 0.07 0.07 0.09 0.10 0.10 0.11 0.16 0.19 0.23 0.22 0.20 0.17 0.15 0.16 0.15 0.13 0.09 0.10 0.12 0.10 0.07 0.07 0.07 0.07 0.06 0.06
0.06 0.12 0.17 0.17 0.15 0.13 0.13 0.13 0.14 0.11 0.07 0.06 0.07 0.08 0.08 0.08 0.09 0.08 0.07 0.09 0.09 0.11 0.16 0.21 0.21 0.23 0.21 0.18 0.18 0.17 0.15 0.13 0.11 0.08 0.10 0.08 0.06 0.06 0.07 0.06 0.06 0.06 0.06
0.05 0.09 0.11 0.13 0.13 0.13 0.14 0.13 0.12 0.09 0.09 0.11 0.13 0.14 0.16 0.15 0.12 0.10 0.08 0.08 0.10 0.12 0.17 0.19 0.20 0.23 0.21 0.19 0.17 0.16 0.15 0.13 0.11 0.08 0.07 0.05 0.04 0.04 0.05 0.05 0.06 0.07 0.04
0.05 0.08 0.10 0.10 0.12 0.15 0.16 0.16 0.12 0.11 0.12 0.15 0.20 0.27 0.28 0.23 0.16 0.12 0.11 0.11 0.10 0.10 0.12 0.10 0.13 0.20 0.18 0.16 0.13 0.12 0.12 0.11 0.09 0.06 0.04 0.05 0.05 0.04 0.03 0.04 0.04 0.06 0.04
0.06 0.12 0.13 0.11 0.12 0.14 0.16 0.18 0.15 0.14 0.18 0.21 0.24 0.29 0.31 0.26 0.17 0.14 0.13 0.12 0.11 0.08 0.07 0.06 0.10 0.19 0.15 0.13 0.10 0.09 0.10 0.09 0.06 0.04 0.04 0.04 0.04 0.04 0.03 0.03 0.03 0.03 0.03
0.04 0.10 0.15 0.14 0.14 0.13 0.13 0.15 0.16 0.14 0.13 0.15 0.18 0.20 0.19 0.20 0.19 0.14 0.11 0.10 0.09 0.07 0.06 0.06 0.12 0.14 0.10 0.10 0.09 0.08 0.10 0.08 0.05 0.05 0.05 0.04 0.04 0.04 0.05 0.04 0.03 0.04 0.03
0.03 0.07 0.13 0.18 0.18 0.14 0.12 0.13 0.15 0.14 0.13 0.13 0.15 0.18 0.18 0.18 0.16 0.12 0.09 0.08 0.08 0.08 0.07 0.06 0.09 0.09 0.07 0.07 0.07 0.06 0.06 0.05 0.04 0.04 0.03 0.04 0.03 0.04 0.05 0.04 0.05 0.03 0.04
0.03 0.11 0.24 0.29 0.22 0.16 0.15 0.13 0.15 0.19 0.22 0.25 0.27 0.25 0.18 0.13 0.11 0.09 0.07 0.07 0.07 0.07 0.06 0.05 0.06 0.06 0.06 0.07 0.08 0.07 0.04 0.03 0.03 0.04 0.03 0.04 0.03 0.04 0.05 0.04 0.03 0.04 0.05
0.02 0.10 0.24 0.32 0.27 0.19 0.14 0.13 0.11 0.13 0.16 0.19 0.20 0.17 0.15 0.12 0.10 0.08 0.07 0.06 0.07 0.05 0.04 0.04 0.04 0.04 0.04 0.05 0.07 0.08 0.05 0.04 0.04 0.03 0.04 0.03 0.03 0.04 0.06 0.06 0.05 0.06 0.07
0.02 0.06 0.11 0.18 0.19 0.17 0.13 0.11 0.09 0.08 0.09 0.11 0.11 0.09 0.08 0.07 0.06 0.05 0.05 0.06 0.05 0.04 0.04 0.05 0.04 0.04 0.03 0.04 0.05 0.07 0.05 0.04 0.04 0.04 0.04 0.02 0.03 0.05 0.06 0.07 0.08 0.07 0.07
0.02 0.05 0.07 0.11 0.12 0.10 0.10 0.09 0.08 0.05 0.05 0.05 0.07 0.05 0.04 0.04 0.04 0.03 0.04 0.05 0.03 0.02 0.02 0.03 0.03 0.02 0.02 0.03 0.04 0.04 0.04 0.04 0.04 0.04 0.03 0.02 0.02 0.04 0.05 0.05 0.06 0.07 0.08
0.03 0.05 0.05 0.07 0.09 0.09 0.10 0.09 0.08 0.06 0.05 0.04 0.03 0.03 0.03 0.03 0.04 0.04 0.04 0.04 0.03 0.01 0.02 0.02 0.02 0.03 0.03 0.03 0.04 0.04 0.03 0.03 0.04 0.04 0.03 0.02 0.02 0.04 0.05 0.05 0.04 0.06 0.10
0.05 0.04 0.04 0.05 0.06 0.06 0.06 0.07 0.06 0.05 0.05 0.04 0.04 0.03 0.03 0.03 0.04 0.04 0.05 0.03 0.03 0.02 0.02 0.01 0.01 0.02 0.04 0.04 0.04 0.04 0.04 0.04 0.04 0.04 0.03 0.02 0.03 0.03 0.04 0.05 0.06 0.05 0.05
0.03 0.02 0.02 0.04 0.04 0.03 0.04 0.04 0.04 0.04 0.03 0.03 0.03 0.03 0.03 0.03 0.04 0.05 0.05 0.04 0.03 0.03 0.04 0.04 0.03 0.03 0.04 0.05 0.03 0.03 0.03 0.04 0.03 0.03 0.03 0.02 0.03 0.04 0.04 0.04 0.04 0.05 0.05
0.02 0.01 0.01 0.03 0.03 0.03 0.03 0.03 0.05 0.03 0.03 0.02 0.03 0.03 0.03 0.03 0.04 0.04 0.04 0.04 0.03 0.04 0.05 0.05 0.05 0.04 0.05 0.05 0.05 0.06 0.05 0.03 0.03 0.02 0.02 0.03 0.04 0.05 0.05 0.05 0.06 0.06 0.06
0.02 0.02 0.01 0.02 0.03 0.02 0.02 0.02 0.02 0.02 0.02 0.02 0.02 0.03 0.03 0.02 0.03 0.04 0.04 0.03 0.03 0.03 0.04 0.05 0.05 0.04 0.04 0.04 0.04 0.05 0.05 0.04 0.04 0.03 0.02 0.03 0.04 0.05 0.05 0.06 0.07 0.06 0.06
0.02 0.03 0.02 0.02 0.01 0.01 0.01 0.02 0.02 0.02 0.02 0.02 0.02 0.02 0.01 0.02 0.03 0.04 0.05 0.04 0.03 0.03 0.04 0.04 0.04 0.03 0.03 0.04 0.03 0.03 0.03 0.03 0.02 0.02 0.02 0.02 0.03 0.05 0.06 0.06 0.07 0.06 0.06
0.01 0.03 0.03 0.01 0.01 0.02 0.03 0.02 0.02 0.03 0.03 0.02 0.02 0.02 0.02 0.03 0.03 0.04 0.06 0.05 0.03 0.03 0.03 0.02 0.02 0.02 0.03 0.04 0.03 0.02 0.02 0.02 0.02 0.02 0.02 0.02 0.02 0.03 0.05 0.06 0.06 0.06 0.06
0.00 0.01 0.02 0.01 0.01 0.02 0.04 0.05 0.05 0.03 0.03 0.03 0.02 0.02 0.03 0.04 0.05 0.04 0.04 0.04 0.03 0.03 0.03 0.03 0.03 0.03 0.03 0.04 0.02 0.02 0.02 0.02 0.02 0.02 0.02 0.02 0.02 0.01 0.03 0.04 0.07 0.06 0.06
0.01 0.01 0.01 0.01 0.02 0.02 0.03 0.05 0.06 0.06 0.05 0.05 0.04 0.04 0.04 0.05 0.06 0.06 0.05 0.06 0.05 0.04 0.04 0.03 0.04 0.03 0.03 0.03 0.04 0.03 0.02 0.01 0.01 0.01 0.01 0.01 0.02 0.02 0.03 0.04 0.05 0.06 0.06
0.01 0.01 0.01 0.01 0.01 0.02 0.03 0.04 0.05 0.08 0.09 0.07 0.08 0.07 0.07 0.07 0.07 0.08 0.09 0.07 0.06 0.07 0.06 0.05 0.05 0.05 0.04 0.03 0.04 0.04 0.04 0.03 0.01 0.00 0.01 0.02 0.02 0.03 0.03 0.03 0.03 0.05 0.05
0.01 0.01 0.01 0.01 0.01 0.01 0.02 0.03 0.04 0.07 0.10 0.10 0.11 0.12 0.10 0.08 0.08 0.09 0.08 0.05 0.05 0.05 0.05 0.06 0.05 0.06 0.05 0.03 0.03 0.05 0.05 0.04 0.03 0.01 0.00 0.01 0.01 0.03 0.03 0.03 0.02 0.03 0.04
0.01 0.01 0.00 0.00 0.01 0.01 0.01 0.02 0.04 0.05 0.07 0.09 0.08 0.08 0.06 0.05 0.07 0.06 0.06 0.06 0.06 0.06 0.06 0.04 0.04 0.05 0.04 0.04 0.03 0.04 0.05 0.04 0.03 0.02 0.01 0.01 0.01 0.01 0.02 0.03 0.03 0.03 0.04
0.00 0.00 0.00 0.00 0.01 0.01 0.02 0.03 0.05 0.03 0.03 0.02 0.03 0.04 0.03 0.04 0.05 0.03 0.03 0.04 0.04 0.04 0.04 0.04 0.03 0.03 0.03 0.04 0.04 0.04 0.03 0.03 0.02 0.02 0.03 0.02 0.01 0.01 0.01 0.02 0.04 0.06 0.08
0.00 0.00 0.00 0.00 0.01 0.01 0.01 0.01 0.02 0.02 0.01 0.01 0.01 0.02 0.02 0.03 0.04 0.03 0.03 0.03 0.02 0.03 0.04 0.04 0.03 0.03 0.04 0.04 0.05 0.04 0.03 0.04 0.03 0.03 0.03 0.03 0.02 0.01 0.02 0.03 0.05 0.06 0.08
MSLP
1015.51 1014.91 1014.39 1014.04 1013.92 1014.02 1014.24 1014.48 1014.60 1014.52 1014.17 1013.61 1012.90 1012.17 1011.51 1010.99 1010.65 1010.45 1010.35 1010.29 1010.22 1010.14 1010.07 1010.03 1010.07 1010.21 1010.43 1010.72 1011.04 1011.38 1011.71 1012.06 1012.45 1012.90 1013.41 1013.95 1014.48 1014.92 1015.23 1015.38 1015.38 1015.29 1015.20
1015.47 1015.00 1014.59 1014.35 1014.28 1014.38 1014.58 1014.78 1014.88 1014.81 1014.53 1014.08 1013.53 1012.96 1012.44 1012.03 1011.73 1011.51 1011.35 1011.19 1011.02 1010.86 1010.72 1010.65 1010.69 1010.83 1011.08 1011.38 1011.71 1012.04 1012.36 1012.66 1012.99 1013.35 1013.77 1014.20 1014.63 1014.99 1015.25 1015.39 1015.43 1015.41 1015.41
1015.42 1015.11 1014.86 1014.72 1014.71 1014.81 1014.97 1015.11 1015.15 1015.06 1014.82 1014.47 1014.07 1013.67 1013.32 1013.04 1012.82 1012.63 1012.44 1012.23 1011.99 1011.76 1011.58 1011.49 1011.52 1011.67 1011.93 1012.24 1012.55 1012.84 1013.09 1013.31 1013.53 1013.78 1014.07 1014.39 1014.72 1015.03 1015.27 1015.44 1015.54 1015.62 1015.72
1015.41 1015.26 1015.15 1015.12 1015.17 1015.27 1015.38 1015.45 1015.42 1015.29 1015.06 1014.78 1014.50 1014.24 1014.05 1013.90 1013.78 1013.65 1013.47 1013.24 1012.98 1012.73 1012.54 1012.45 1012.49 1012.66 1012.91 1013.20 1013.47 1013.68 1013.83 1013.93 1014.03 1014.14 1014.31 1014.54 1014.81 1015.08 1015.34 1015.57 1015.75 1015.92 1016.10
1015.47 1015.44 1015.45 1015.52 1015.62 1015.72 1015.79 1015.78 1015.68 1015.49 1015.25 1015.00 1014.79 1014.64 1014.56 1014.53 1014.50 1014.43 1014.29 1014.09 1013.85 1013.61 1013.45 1013.39 1013.46 1013.63 1013.87 1014.11 1014.31 1014.42 1014.46 1014.44 1014.41 1014.42 1014.51 1014.67 1014.92 1015.20 1015.50 1015.78 1016.04 1016.28 1016.51
1015.57 1015.62 1015.71 1015.84 1015.98 1016.09 1016.12 1016.06 1015.90 1015.67 1015.40 1015.15 1014.97 1014.88 1014.86 1014.89 1014.92 1014.90 1014.81 1014.65 1014.46 1014.28 1014.17 1014.16 1014.26 1014.44 1014.65 1014.84 1014.95 1014.96 1014.89 1014.77 1014.66 1014.61 1014.65 1014.81 1015.07 1015.39 1015.73 1016.06 1016.37 1016.64 1016.89
1015.69 1015.76 1015.88 1016.04 1016.20 1016.32 1016.35 1016.26 1016.06 1015.79 1015.50 1015.24 1015.06 1014.98 1014.98 1015.03 1015.08 1015.08 1015.03 1014.92 1014.79 1014.68 1014.63 1014.67 1014.80 1014.98 1015.16 1015.28 1015.32 1015.25 1015.09 1014.91 1014.76 1014.70 1014.77 1014.96 1015.27 1015.63 1016.02 1016.38 1016.69 1016.95 1017.16
1015.80 1015.83 1015.93 1016.10 1016.27 1016.40 1016.43 1016.35 1016.15 1015.87 1015.57 1015.30 1015.10 1015.00 1014.98 1015.01 1015.05 1015.06 1015.02 1014.95 1014.87 1014.82 1014.83 1014.92 1015.07 1015.24 1015.38 1015.45 1015.41 1015.28 1015.09 1014.89 1014.75 1014.74 1014.87 1015.14 1015.51 1015.93 1016.34 1016.69 1016.96 1017.16 1017.29
1015.86 1015.82 1015.88 1016.02 1016.19 1016.33 1016.39 1016.33 1016.16 1015.90 1015.61 1015.34 1015.13 1015.01 1014.95 1014.94 1014.95 1014.94 1014.90 1014.84 1014.80 1014.80 1014.85 1014.97 1015.13 1015.28 1015.39 1015.41 1015.32 1015.16 1014.96 1014.78 1014.71 1014.77 1015.00 1015.35 1015.79 1016.24 1016.65 1016.96 1017.16 1017.25 1017.28
1015.89 1015.77 1015.77 1015.88 1016.04 1016.19 1016.28 1016.25 1016.12 1015.91 1015.65 1015.40 1015.19 1015.05 1014.96 1014.91 1014.88 1014.84 1014.78 1014.74 1014.71 1014.74 1014.82 1014.95 1015.10 1015.23 1015.30 1015.28 1015.17 1015.00 1014.82 1014.70 1014.70 1014.86 1015.18 1015.61 1016.10 1016.56 1016.93 1017.17 1017.27 1017.26 1017.17
1015.91 1015.73 1015.69 1015.77 1015.91 1016.06 1016.16 1016.17 1016.08 1015.91 1015.69 1015.47 1015.28 1015.14 1015.04 1014.96 1014.90 1014.83 1014.77 1014.72 1014.70 1014.74 1014.83 1014.96 1015.10 1015.21 1015.25 1015.20 1015.08 1014.92 1014.78 1014.72 1014.80 1015.05 1015.44 1015.92 1016.42 1016.86 1017.18 1017.34 1017.33 1017.21 1017.02
1015.98 1015.78 1015.71 1015.76 1015.89 1016.02 1016.11 1016.13 1016.06 1015.93 1015.75 1015.57 1015.41 1015.28 1015.18 1015.10 1015.03 1014.95 1014.88 1014.82 1014.81 1014.85 1014.94 1015.06 1015.19 1015.28 1015.30 1015.25 1015.14 1015.00 1014.91 1014.91 1015.05 1015.35 1015.77 1016.27 1016.75 1017.15 1017.40 1017.47 1017.38 1017.16 1016.91
1016.15 1015.96 1015.89 1015.93 1016.02 1016.12 1016.18 1016.18 1016.11 1015.99 1015.84 1015.69 1015.56 1015.46 1015.38 1015.31 1015.24 1015.17 1015.10 1015.05 1015.04 1015.08 1015.17 1015.28 1015.40 1015.49 1015.51 1015.46 1015.37 1015.27 1015.21 1015.26 1015.43 1015.75 1016.17 1016.64 1017.08 1017.41 1017.59 1017.59 1017.43 1017.17 1016.87
1016.42 1016.28 1016.24 1016.26 1016.32 1016.37 1016.37 1016.32 1016.22 1016.08 1015.93 1015.80 1015.70 1015.63 1015.58 1015.54 1015.49 1015.44 1015.38 1015.34 1015.34 1015.38 1015.47 1015.59 1015.71 1015.80 1015.84 1015.82 1015.76 1015.69 1015.67 1015.73 1015.91 1016.21 1016.60 1017.01 1017.38 1017.64 1017.75 1017.70 1017.51 1017.23 1016.93
1016.77 1016.71 1016.70 1016.71 1016.73 1016.71 1016.65 1016.53 1016.37 1016.19 1016.04 1015.91 1015.83 1015.79 1015.77 1015.76 1015.74 1015.71 1015.68 1015.65 1015.66 1015.71 1015.81 1015.93 1016.06 1016.17 1016.23 1016.24 1016.22 1016.19 1016.19 1016.27 1016.43 1016.68 1017.00 1017.33 1017.62 1017.81 1017.87 1017.80 1017.62 1017.36 1017.08
1017.14 1017.15 1017.17 1017.18 1017.16 1017.08 1016.94 1016.74 1016.53 1016.31 1016.13 1016.01 1015.94 1015.92 1015.93 1015.94 1015.95 1015.95 1015.94 1015.93 1015.95 1016.01 1016.12 1016.25 1016.39 1016.52 1016.62 1016.67 1016.68 1016.69 1016.71 1016.77 1016.90 1017.10 1017.33 1017.57 1017.78 1017.91 1017.94 1017.88 1017.72 1017.51 1017.28
1017.44 1017.51 1017.55 1017.55 1017.50 1017.36 1017.16 1016.92 1016.66 1016.41 1016.22 1016.09 1016.02 1016.02 1016.04 1016.08 1016.11 1016.13 1016.14 1016.15 1016.19 1016.26 1016.37 1016.51 1016.66 1016.81 1016.93 1017.02 1017.07 1017.11 1017.14 1017.19 1017.28 1017.41 1017.57 1017.73 1017.86 1017.94 1017.96 1017.91 1017.80 1017.65 1017.48
1017.60 1017.70 1017.76 1017.75 1017.67 1017.51 1017.28 1017.01 1016.74 1016.49 1016.29 1016.16 1016.11 1016.10 1016.14 1016.19 1016.23 1016.27 1016.29 1016.32 1016.37 1016.44 1016.55 1016.70 1016.86 1017.02 1017.16 1017.27 1017.35 1017.40 1017.44 1017.48 1017.54 1017.62 1017.70 1017.79 1017.87 1017.91 1017.92 1017.90 1017.85 1017.76 1017.64
1017.59 1017.70 1017.75 1017.74 1017.65 1017.49 1017.28 1017.03 1016.77 1016.54 1016.37 1016.25 1016.20 1016.20 1016.23 1016.27 1016.32 1016.36 1016.40 1016.44 1016.50 1016.58 1016.69 1016.83 1016.99 1017.14 1017.29 1017.41 1017.50 1017.56 1017.61 1017.65 1017.68 1017.71 1017.75 1017.79 1017.81 1017.84 1017.85 1017.85 1017.84 1017.81 1017.75
1017.43 1017.52 1017.57 1017.56 1017.48 1017.35 1017.18 1016.98 1016.78 1016.60 1016.46 1016.36 1016.31 1016.30 1016.31 1016.34 1016.38 1016.42 1016.47 1016.52 1016.59 1016.68 1016.80 1016.92 1017.07 1017.21 1017.33 1017.45 1017.54 1017.61 1017.65 1017.69 1017.71 1017.72 1017.73 1017.73 1017.73 1017.74 1017.75 1017.77 1017.80 1017.81 1017.79
1017.18 1017.24 1017.28 1017.27 1017.22 1017.14 1017.04 1016.92 1016.80 1016.68 1016.58 1016.50 1016.44 1016.41 1016.39 1016.39 1016.41 1016.45 1016.50 1016.57 1016.65 1016.75 1016.87 1016.98 1017.10 1017.21 1017.32 1017.41 1017.48 1017.55 1017.60 1017.64 1017.66 1017.67 1017.67 1017.65 1017.64 1017.63 1017.64 1017.67 1017.72 1017.77 1017.79
1016.90 1016.95 1016.97 1016.97 1016.96 1016.95 1016.92 1016.89 1016.84 1016.79 1016.72 1016.65 1016.57 1016.49 1016.43 1016.40 1016.39 1016.41 1016.47 1016.55 1016.66 1016.77 1016.89 1017.00 1017.09 1017.17 1017.24 1017.29 1017.35 1017.41 1017.46 1017.51 1017.55 1017.57 1017.57 1017.56 1017.54 1017.52 1017.53 1017.56 1017.62 1017.68 1017.74
1016.67 1016.70 1016.72 1016.74 1016.76 1016.80 1016.85 1016.89 1016.91 1016.90 1016.85 1016.77 1016.65 1016.53 1016.41 1016.32 1016.28 1016.29 1016.35 1016.45 1016.58 1016.71 1016.83 1016.93 1017.00 1017.05 1017.08 1017.10 1017.14 1017.18 1017.24 1017.30 1017.36 1017.41 1017.43 1017.43 1017.42 1017.40 1017.39 1017.42 1017.48 1017.56 1017.64
1016.51 1016.53 1016.55 1016.58 1016.63 1016.71 1016.81 1016.90 1016.96 1016.98 1016.93 1016.82 1016.66 1016.47 1016.28 1016.14 1016.05 1016.04 1016.10 1016.22 1016.37 1016.52 1016.65 1016.74 1016.80 1016.82 1016.81 1016.81 1016.82 1016.85 1016.92 1017.00 1017.09 1017.17 1017.22 1017.24 1017.24 1017.22 1017.21 1017.24 1017.30 1017.39 1017.51
1016.40 1016.42 1016.43 1016.46 1016.53 1016.63 1016.75 1016.86 1016.94 1016.96 1016.90 1016.75 1016.53 1016.28 1016.03 1015.83 1015.70 1015.67 1015.72 1015.84 1016.01 1016.17 1016.31 1016.40 1016.44 1016.44 1016.41 1016.38 1016.37 1016.41 1016.48 1016.59 1016.71 1016.82 1016.90 1016.95 1016.97 1016.96 1016.96 1016.98 1017.05 1017.16 1017.31
1016.30 1016.31 1016.32 1016.33 1016.39 1016.48 1016.60 1016.71 1016.79 1016.79 1016.70 1016.52 1016.25 1015.95 1015.65 1015.40 1015.23 1015.17 1015.21 1015.33 1015.49 1015.66 1015.80 1015.88 1015.91 1015.89 1015.84 1015.80 1015.79 1015.82 1015.91 1016.04 1016.19 1016.34 1016.45 1016.53 1016.58 1016.59 1016.60 1016.64 1016.73 1016.87 1017.07
Thickness
5780 5782 5778 5780 5781 5782 5782 5783 5783 5784 5784 5785 5785 5786 5785 5785 5785 5785 5784 5783 5782 5780 5779 5778 5777 5776 5774 5773 5772 5770 5769 5767 5765 5763 5762 5761 5759 5758 5757 5757 5757 5757 5754
5781 5781 5777 5778 5779 5780 5781 5781 5782 5782 5782 5783 5783 5783 5783 5783 5783 5782 5782 5781 5780 5779 5777 5776 5775 5774 5773 5771 5770 5768 5767 5765 5764 5762 5761 5760 5758 5757 5756 5756 5757 5756 5753
5782 5781 5778 5777 5778 5779 5779 5780 5780 5780 5780 5781 5781 5781 5781 5781 5781 5780 5779 5779 5779 5777 5776 5774 5773 5772 5771 5769 5768 5766 5765 5764 5762 5762 5761 5763 5759 5755 5755 5754 5753 5752 5751
5782 5781 5778 5776 5776 5777 5778 5778 5779 5779 5779 5779 5779 5779 5779 5778 5778 5778 5777 5776 5776 5775 5773 5772 5771 5770 5769 5767 5766 5765 5763 5762 5761 5761 5764 5764 5760 5755 5754 5753 5752 5751 5749
5781 5780 5776 5775 5775 5776 5776 5776 5777 5777 5777 5776 5776 5776 5776 5776 5775 5775 5774 5774 5773 5772 5771 5770 5769 5768 5767 5765 5764 5763 5762 5761 5761 5762 5763 5762 5759 5754 5752 5751 5750 5749 5748
5781 5780 5775 5773 5774 5774 5775 5775 5774 5774 5775 5774 5774 5774 5773 5773 5773 5772 5772 5771 5770 5769 5769 5768 5767 5766 5764 5763 5762 5761 5760 5760 5761 5763 5762 5761 5758 5753 5751 5750 5749 5748 5747
5781 5780 5776 5772 5772 5773 5773 5773 5772 5772 5772 5772 5772 5771 5771 5770 5770 5770 5769 5769 5768 5768 5768 5768 5766 5764 5763 5762 5761 5760 5759 5759 5763 5763 5761 5759 5756 5752 5750 5749 5748 5747 5746
5781 5779 5776 5771 5771 5771 5771 5771 5771 5771 5771 5771 5770 5770 5769 5768 5768 5767 5767 5767 5767 5766 5766 5765 5764 5762 5761 5760 5759 5758 5758 5759 5762 5762 5761 5758 5754 5751 5749 5748 5747 5746 5745
5780 5779 5777 5776 5773 5771 5770 5770 5769 5769 5769 5769 5769 5768 5767 5767 5766 5766 5766 5766 5765 5765 5764 5763 5762 5761 5760 5759 5759 5758 5757 5758 5762 5761 5760 5757 5753 5750 5748 5747 5746 5745 5744
5779 5779 5778 5777 5775 5775 5772 5769 5768 5768 5768 5768 5767 5767 5766 5766 5766 5765 5765 5764 5764 5763 5763 5762 5761 5760 5759 5759 5758 5757 5757 5758 5762 5761 5759 5756 5751 5749 5747 5746 5745 5744 5742
5777 5778 5778 5778 5776 5776 5774 5770 5769 5768 5767 5767 5766 5765 5766 5768 5768 5767 5765 5763 5762 5762 5761 5761 5760 5760 5759 5758 5757 5756 5757 5761 5762 5761 5758 5754 5751 5748 5747 5746 5744 5743 5742
5775 5777 5778 5777 5776 5776 5775 5771 5771 5771 5768 5768 5766 5766 5767 5766 5767 5767 5763 5762 5761 5761 5761 5760 5760 5760 5761 5762 5760 5758 5761 5762 5762 5760 5757 5752 5750 5748 5747 5745 5744 5743 5742
5776 5777 5777 5775 5774 5775 5774 5773 5771 5770 5768 5768 5766 5766 5766 5766 5766 5766 5766 5764 5763 5763 5764 5762 5762 5763 5763 5762 5762 5762 5762 5763 5762 5760 5757 5752 5749 5748 5746 5745 5744 5743 5742
5777 5777 5777 5775 5773 5772 5773 5772 5771 5771 5770 5769 5766 5767 5766 5766 5766 5765 5765 5765 5765 5764 5763 5764 5763 5762 5761 5761 5761 5762 5762 5761 5761 5759 5754 5751 5748 5747 5746 5745 5743 5743 5742
5777 5777 5776 5775 5773 5772 5771 5771 5771 5770 5771 5769 5767 5766 5766 5767 5766 5765 5764 5763 5765 5764 5763 5762 5761 5760 5760 5760 5761 5761 5760 5760 5759 5758 5755 5751 5748 5747 5745 5744 5743 5742 5741
5780 5779 5778 5776 5773 5771 5770 5770 5770 5770 5768 5769 5768 5766 5765 5766 5765 5764 5763 5763 5764 5763 5762 5761 5761 5760 5761 5760 5760 5759 5759 5759 5758 5757 5755 5752 5749 5747 5745 5744 5743 5742 5742
5784 5782 5779 5777 5775 5773 5772 5771 5772 5771 5771 5769 5767 5765 5765 5765 5763 5763 5764 5763 5763 5762 5761 5761 5761 5762 5761 5761 5759 5759 5758 5757 5757 5755 5755 5753 5752 5748 5746 5744 5743 5743 5741
5786 5782 5781 5781 5777 5774 5772 5771 5772 5772 5770 5769 5768 5766 5764 5764 5763 5763 5764 5763 5761 5762 5762 5762 5762 5761 5760 5759 5758 5758 5758 5756 5756 5755 5755 5753 5752 5751 5748 5745 5743 5742 5741
5788 5784 5782 5781 5778 5776 5774 5772 5772 5770 5769 5769 5768 5767 5765 5764 5763 5763 5763 5761 5761 5762 5762 5762 5761 5760 5757 5756 5757 5757 5757 5757 5755 5756 5754 5753 5752 5750 5749 5746 5744 5742 5740
5790 5786 5783 5781 5779 5777 5776 5773 5773 5771 5771 5770 5769 5766 5765 5764 5763 5763 5763 5761 5762 5762 5760 5759 5757 5757 5756 5755 5757 5756 5756 5756 5756 5755 5755 5754 5752 5751 5749 5747 5745 5744 5740
5792 5788 5784 5782 5780 5778 5777 5775 5773 5772 5772 5772 5770 5767 5766 5765 5764 5763 5764 5762 5762 5761 5759 5759 5758 5756 5755 5755 5754 5753 5754 5755 5754 5753 5754 5753 5753 5750 5748 5746 5745 5744 5742
5793 5790 5786 5784 5782 5780 5779 5777 5775 5774 5774 5773 5772 5768 5767 5766 5765 5765 5763 5763 5762 5760 5758 5756 5755 5754 5755 5755 5752 5750 5748 5749 5750 5753 5752 5751 5750 5749 5747 5746 5744 5741 5741
5796 5793 5791 5788 5785 5782 5781 5779 5777 5774 5774 5773 5771 5770 5768 5767 5766 5764 5763 5763 5761 5761 5759 5756 5754 5752 5751 5754 5753 5749 5744 5742 5745 5750 5749 5749 5748 5746 5746 5745 5743 5741 5739
5801 5798 5794 5790 5787 5784 5782 5780 5777 5774 5772 5772 5772 5772 5770 5768 5766 5764 5763 5762 5760 5761 5758 5757 5757 5754 5751 5751 5752 5750 5748 5747 5741 5741 5746 5747 5746 5744 5744 5744 5743 5740 5738
5806 5802 5797 5792 5789 5786 5784 5781 5778 5777 5776 5775 5774 5771 5769 5769 5767 5766 5764 5762 5760 5759 5758 5756 5755 5754 5753 5751 5751 5750 5748 5746 5745 5741 5738 5740 5743 5744 5743 5742 5741 5739 5737
5809 5805 5801 5794 5790 5788 5785 5783 5779 5777 5775 5774 5772 5771 5770 5771 5769 5767 5765 5762 5760 5759 5757 5755 5754 5753 5752 5750 5749 5749 5747 5745 5743 5742 5738 5738 5738 5741 5741 5740 5739 5737 5735